QPF
0.00 0.00 0.00 0.00 0.00 0.00 0.00 0.00 0.02 0.03 0.04 0.03 0.03 0.03 0.03 0.02 0.02 0.02 0.03 0.03 0.04 0.05 0.05 0.06 0.05 0.08 0.11 0.07 0.04 0.05 0.04 0.05 0.03 0.03 0.05 0.05 0.04 0.04 0.04 0.04 0.04 0.05 0.05 0.03
0.01 0.00 0.00 0.00 0.00 0.00 0.00 0.00 0.01 0.01 0.02 0.02 0.02 0.03 0.03 0.02 0.02 0.02 0.02 0.03 0.05 0.05 0.05 0.06 0.04 0.03 0.06 0.05 0.04 0.05 0.03 0.05 0.06 0.05 0.06 0.05 0.04 0.03 0.04 0.05 0.04 0.04 0.05 0.03
0.01 0.00 0.01 0.01 0.01 0.01 0.01 0.01 0.02 0.03 0.03 0.02 0.01 0.01 0.01 0.01 0.02 0.02 0.02 0.03 0.06 0.05 0.04 0.04 0.04 0.04 0.04 0.04 0.03 0.03 0.03 0.05 0.07 0.06 0.07 0.07 0.04 0.03 0.04 0.03 0.03 0.04 0.04 0.03
0.01 0.01 0.03 0.03 0.01 0.01 0.03 0.05 0.08 0.10 0.06 0.02 0.01 0.01 0.01 0.01 0.02 0.02 0.03 0.04 0.04 0.04 0.03 0.03 0.04 0.04 0.02 0.02 0.02 0.03 0.02 0.03 0.05 0.04 0.08 0.09 0.06 0.04 0.04 0.03 0.04 0.03 0.03 0.02
0.01 0.01 0.02 0.02 0.02 0.04 0.04 0.04 0.06 0.06 0.04 0.02 0.01 0.01 0.02 0.01 0.01 0.02 0.03 0.03 0.04 0.04 0.02 0.01 0.02 0.01 0.01 0.01 0.02 0.02 0.02 0.03 0.04 0.03 0.07 0.07 0.05 0.04 0.03 0.03 0.03 0.03 0.02 0.02
0.01 0.04 0.03 0.02 0.02 0.04 0.03 0.02 0.02 0.02 0.02 0.02 0.02 0.03 0.03 0.02 0.01 0.01 0.02 0.02 0.02 0.03 0.01 0.01 0.01 0.01 0.01 0.01 0.02 0.03 0.02 0.02 0.02 0.02 0.03 0.04 0.03 0.03 0.02 0.02 0.01 0.01 0.01 0.01
0.02 0.04 0.04 0.04 0.03 0.02 0.02 0.02 0.01 0.01 0.01 0.01 0.02 0.05 0.05 0.02 0.02 0.02 0.01 0.01 0.01 0.01 0.01 0.01 0.01 0.01 0.01 0.00 0.02 0.02 0.02 0.02 0.02 0.02 0.02 0.02 0.03 0.02 0.01 0.01 0.01 0.00 0.00 0.00
0.02 0.03 0.05 0.05 0.02 0.02 0.02 0.01 0.01 0.01 0.01 0.00 0.01 0.05 0.05 0.02 0.01 0.01 0.01 0.00 0.00 0.01 0.01 0.01 0.01 0.01 0.00 0.01 0.01 0.01 0.01 0.02 0.02 0.02 0.02 0.03 0.02 0.01 0.01 0.00 0.00 0.01 0.00 0.00
0.02 0.03 0.03 0.02 0.02 0.02 0.01 0.01 0.01 0.01 0.01 0.01 0.01 0.01 0.01 0.01 0.02 0.01 0.01 0.00 0.00 0.01 0.01 0.01 0.01 0.01 0.00 0.00 0.01 0.01 0.01 0.01 0.01 0.02 0.03 0.02 0.01 0.00 0.00 0.00 0.00 0.01 0.01 0.01
0.02 0.03 0.04 0.02 0.02 0.01 0.01 0.01 0.01 0.01 0.02 0.01 0.01 0.01 0.01 0.01 0.01 0.00 0.01 0.01 0.01 0.01 0.01 0.01 0.01 0.01 0.01 0.01 0.01 0.01 0.01 0.02 0.03 0.03 0.01 0.01 0.00 0.00 0.00 0.00 0.00 0.01 0.01 0.01
0.01 0.01 0.01 0.01 0.01 0.01 0.01 0.01 0.01 0.01 0.01 0.01 0.01 0.01 0.01 0.01 0.01 0.01 0.01 0.02 0.02 0.02 0.01 0.01 0.01 0.01 0.01 0.01 0.01 0.01 0.02 0.03 0.03 0.01 0.00 0.00 0.00 0.00 0.00 0.00 0.00 0.00 0.00 0.00
0.01 0.01 0.01 0.01 0.01 0.01 0.01 0.01 0.01 0.01 0.01 0.00 0.00 0.00 0.01 0.01 0.01 0.01 0.01 0.01 0.01 0.01 0.01 0.01 0.01 0.01 0.01 0.01 0.01 0.01 0.03 0.02 0.01 0.00 0.00 0.00 0.00 0.00 0.01 0.01 0.00 0.00 0.00 0.00
0.00 0.00 0.00 0.00 0.00 0.00 0.01 0.01 0.01 0.00 0.00 0.00 0.00 0.00 0.01 0.01 0.01 0.01 0.01 0.02 0.01 0.01 0.01 0.01 0.01 0.01 0.01 0.02 0.02 0.02 0.01 0.01 0.00 0.00 0.00 0.00 0.00 0.00 0.01 0.01 0.00 0.01 0.02 0.02
0.00 0.00 0.00 0.00 0.00 0.00 0.00 0.00 0.01 0.01 0.01 0.00 0.00 0.00 0.01 0.01 0.01 0.01 0.01 0.02 0.02 0.01 0.01 0.01 0.01 0.01 0.02 0.01 0.02 0.02 0.01 0.01 0.00 0.00 0.00 0.00 0.00 0.00 0.00 0.00 0.00 0.01 0.01 0.01
0.00 0.00 0.00 0.00 0.00 0.00 0.00 0.01 0.01 0.01 0.01 0.01 0.00 0.00 0.01 0.01 0.01 0.02 0.02 0.01 0.01 0.01 0.01 0.01 0.01 0.01 0.02 0.02 0.02 0.01 0.01 0.01 0.01 0.01 0.01 0.00 0.00 0.00 0.00 0.01 0.01 0.01 0.02 0.01
0.00 0.00 0.00 0.00 0.00 0.00 0.00 0.01 0.01 0.01 0.01 0.01 0.00 0.00 0.00 0.01 0.01 0.01 0.01 0.01 0.01 0.01 0.02 0.02 0.02 0.01 0.01 0.01 0.02 0.01 0.01 0.01 0.01 0.01 0.01 0.00 0.00 0.00 0.00 0.00 0.01 0.01 0.02 0.01
0.00 0.00 0.00 0.00 0.00 0.00 0.00 0.01 0.01 0.02 0.01 0.01 0.00 0.01 0.01 0.02 0.02 0.02 0.02 0.01 0.01 0.01 0.02 0.02 0.01 0.01 0.01 0.02 0.01 0.00 0.00 0.01 0.01 0.01 0.01 0.01 0.01 0.01 0.01 0.01 0.01 0.01 0.01 0.01
0.01 0.00 0.00 0.01 0.01 0.01 0.01 0.01 0.00 0.00 0.01 0.01 0.01 0.01 0.01 0.01 0.02 0.03 0.03 0.02 0.01 0.02 0.01 0.01 0.01 0.01 0.02 0.02 0.01 0.00 0.01 0.00 0.01 0.01 0.01 0.01 0.01 0.01 0.01 0.01 0.01 0.01 0.01 0.01
0.01 0.01 0.01 0.01 0.01 0.01 0.01 0.01 0.00 0.00 0.01 0.01 0.01 0.01 0.00 0.01 0.02 0.02 0.02 0.02 0.02 0.02 0.02 0.02 0.01 0.01 0.03 0.02 0.01 0.01 0.01 0.01 0.01 0.01 0.01 0.01 0.01 0.01 0.01 0.01 0.01 0.01 0.02 0.02
0.02 0.01 0.01 0.01 0.02 0.01 0.02 0.01 0.01 0.01 0.01 0.01 0.01 0.01 0.02 0.01 0.01 0.01 0.02 0.02 0.02 0.02 0.02 0.02 0.02 0.02 0.03 0.03 0.01 0.01 0.01 0.01 0.00 0.00 0.01 0.01 0.01 0.01 0.01 0.01 0.01 0.02 0.03 0.03
0.02 0.02 0.03 0.03 0.03 0.02 0.01 0.01 0.01 0.01 0.02 0.03 0.03 0.02 0.02 0.01 0.00 0.01 0.01 0.02 0.01 0.02 0.03 0.03 0.03 0.03 0.03 0.03 0.02 0.01 0.01 0.01 0.01 0.01 0.01 0.01 0.01 0.01 0.01 0.01 0.02 0.02 0.03 0.02
0.03 0.04 0.03 0.03 0.02 0.01 0.01 0.01 0.01 0.02 0.02 0.03 0.02 0.01 0.00 0.01 0.01 0.01 0.02 0.02 0.02 0.02 0.03 0.03 0.03 0.02 0.03 0.03 0.02 0.02 0.02 0.02 0.01 0.01 0.01 0.01 0.01 0.01 0.01 0.01 0.02 0.02 0.02 0.02
0.02 0.03 0.04 0.03 0.01 0.01 0.01 0.01 0.01 0.01 0.01 0.03 0.02 0.02 0.01 0.01 0.02 0.03 0.04 0.04 0.04 0.03 0.03 0.02 0.02 0.02 0.02 0.02 0.01 0.01 0.01 0.01 0.01 0.01 0.01 0.01 0.01 0.01 0.01 0.01 0.01 0.02 0.02 0.02
0.02 0.02 0.02 0.02 0.01 0.01 0.01 0.02 0.02 0.01 0.01 0.02 0.05 0.07 0.07 0.05 0.04 0.05 0.08 0.07 0.05 0.03 0.03 0.02 0.01 0.01 0.01 0.01 0.01 0.01 0.01 0.01 0.01 0.01 0.01 0.01 0.01 0.01 0.01 0.01 0.02 0.02 0.02 0.02
0.01 0.01 0.01 0.01 0.01 0.01 0.01 0.03 0.02 0.02 0.02 0.02 0.03 0.03 0.03 0.03 0.03 0.02 0.01 0.01 0.01 0.02 0.01 0.01 0.01 0.01 0.00 0.01 0.01 0.01 0.01 0.01 0.01 0.01 0.01 0.01 0.01 0.01 0.01 0.01 0.02 0.02 0.02 0.02
0.01 0.01 0.01 0.01 0.01 0.01 0.01 0.02 0.02 0.02 0.04 0.04 0.03 0.02 0.02 0.02 0.02 0.01 0.01 0.01 0.01 0.01 0.01 0.01 0.01 0.01 0.01 0.01 0.01 0.01 0.00 0.00 0.00 0.00 0.00 0.01 0.01 0.01 0.01 0.02 0.02 0.03 0.03 0.02
0.01 0.01 0.01 0.01 0.01 0.01 0.02 0.02 0.02 0.03 0.04 0.04 0.06 0.04 0.02 0.01 0.01 0.01 0.00 0.00 0.01 0.01 0.01 0.01 0.01 0.01 0.01 0.01 0.01 0.01 0.00 0.00 0.00 0.00 0.00 0.00 0.00 0.01 0.02 0.02 0.03 0.03 0.02 0.01
MSLP
1018.09 1018.11 1018.17 1018.31 1018.54 1018.83 1019.16 1019.48 1019.76 1019.96 1020.06 1020.06 1019.96 1019.78 1019.56 1019.32 1019.06 1018.79 1018.52 1018.22 1017.89 1017.51 1017.10 1016.66 1016.21 1015.78 1015.39 1015.06 1014.79 1014.59 1014.44 1014.31 1014.19 1014.05 1013.88 1013.68 1013.45 1013.20 1012.96 1012.73 1012.54 1012.38 1012.25 1012.15
1018.56 1018.58 1018.60 1018.65 1018.75 1018.88 1019.04 1019.22 1019.37 1019.50 1019.57 1019.59 1019.55 1019.46 1019.33 1019.18 1018.99 1018.78 1018.52 1018.22 1017.87 1017.47 1017.03 1016.57 1016.11 1015.67 1015.27 1014.93 1014.66 1014.44 1014.26 1014.11 1013.96 1013.80 1013.62 1013.41 1013.19 1012.96 1012.74 1012.55 1012.38 1012.26 1012.16 1012.09
1018.98 1018.99 1018.97 1018.94 1018.93 1018.95 1018.98 1019.04 1019.11 1019.17 1019.22 1019.25 1019.26 1019.24 1019.18 1019.08 1018.94 1018.74 1018.49 1018.17 1017.79 1017.36 1016.88 1016.40 1015.91 1015.46 1015.06 1014.72 1014.44 1014.22 1014.03 1013.87 1013.71 1013.54 1013.36 1013.16 1012.95 1012.74 1012.55 1012.39 1012.26 1012.17 1012.10 1012.05
1019.28 1019.26 1019.20 1019.11 1019.03 1018.96 1018.92 1018.90 1018.90 1018.93 1018.98 1019.02 1019.06 1019.08 1019.07 1019.01 1018.88 1018.69 1018.42 1018.07 1017.65 1017.18 1016.67 1016.15 1015.65 1015.19 1014.78 1014.44 1014.16 1013.93 1013.74 1013.57 1013.41 1013.25 1013.07 1012.89 1012.70 1012.53 1012.38 1012.25 1012.16 1012.09 1012.06 1012.03
1019.39 1019.32 1019.21 1019.09 1018.96 1018.85 1018.77 1018.71 1018.69 1018.71 1018.76 1018.83 1018.89 1018.94 1018.96 1018.91 1018.80 1018.60 1018.31 1017.93 1017.47 1016.96 1016.42 1015.87 1015.35 1014.88 1014.46 1014.12 1013.83 1013.60 1013.41 1013.24 1013.08 1012.93 1012.76 1012.60 1012.44 1012.30 1012.18 1012.09 1012.04 1012.01 1012.01 1012.01
1019.25 1019.13 1018.99 1018.83 1018.69 1018.57 1018.47 1018.42 1018.41 1018.44 1018.50 1018.59 1018.69 1018.77 1018.80 1018.78 1018.67 1018.46 1018.16 1017.76 1017.27 1016.74 1016.17 1015.60 1015.07 1014.58 1014.15 1013.80 1013.51 1013.27 1013.07 1012.90 1012.74 1012.58 1012.43 1012.28 1012.15 1012.03 1011.95 1011.90 1011.89 1011.90 1011.93 1011.95
1018.87 1018.69 1018.51 1018.35 1018.20 1018.09 1018.02 1017.99 1018.01 1018.07 1018.17 1018.29 1018.41 1018.52 1018.58 1018.57 1018.47 1018.27 1017.97 1017.56 1017.07 1016.53 1015.95 1015.37 1014.82 1014.32 1013.88 1013.51 1013.21 1012.96 1012.75 1012.56 1012.39 1012.23 1012.08 1011.94 1011.82 1011.74 1011.68 1011.66 1011.68 1011.73 1011.79 1011.85
1018.28 1018.04 1017.84 1017.67 1017.55 1017.47 1017.43 1017.45 1017.51 1017.61 1017.75 1017.90 1018.06 1018.20 1018.28 1018.30 1018.22 1018.04 1017.76 1017.37 1016.89 1016.35 1015.78 1015.20 1014.64 1014.13 1013.68 1013.30 1012.97 1012.70 1012.47 1012.26 1012.07 1011.90 1011.74 1011.60 1011.48 1011.40 1011.35 1011.36 1011.40 1011.47 1011.57 1011.66
1017.54 1017.26 1017.05 1016.89 1016.79 1016.75 1016.76 1016.83 1016.94 1017.09 1017.26 1017.46 1017.65 1017.82 1017.93 1017.98 1017.94 1017.79 1017.54 1017.18 1016.73 1016.21 1015.66 1015.09 1014.54 1014.03 1013.56 1013.16 1012.81 1012.51 1012.25 1012.01 1011.80 1011.59 1011.41 1011.24 1011.11 1011.02 1010.97 1010.98 1011.03 1011.13 1011.25 1011.38
1016.73 1016.43 1016.20 1016.07 1016.00 1016.01 1016.08 1016.19 1016.35 1016.54 1016.76 1016.99 1017.21 1017.41 1017.56 1017.64 1017.63 1017.53 1017.32 1017.00 1016.59 1016.11 1015.59 1015.04 1014.50 1013.99 1013.51 1013.09 1012.72 1012.39 1012.09 1011.82 1011.56 1011.32 1011.10 1010.90 1010.73 1010.60 1010.53 1010.52 1010.57 1010.67 1010.81 1010.97
1015.89 1015.58 1015.37 1015.26 1015.25 1015.30 1015.42 1015.59 1015.79 1016.02 1016.27 1016.52 1016.77 1016.99 1017.17 1017.29 1017.32 1017.26 1017.10 1016.83 1016.47 1016.03 1015.54 1015.02 1014.50 1013.99 1013.51 1013.08 1012.68 1012.32 1011.99 1011.68 1011.38 1011.09 1010.81 1010.55 1010.33 1010.15 1010.03 1009.98 1010.01 1010.10 1010.25 1010.43
1015.04 1014.74 1014.57 1014.51 1014.54 1014.65 1014.82 1015.03 1015.27 1015.53 1015.81 1016.08 1016.35 1016.59 1016.79 1016.93 1017.00 1016.98 1016.86 1016.64 1016.33 1015.94 1015.48 1015.00 1014.49 1014.00 1013.52 1013.08 1012.66 1012.28 1011.92 1011.56 1011.22 1010.87 1010.54 1010.21 1009.92 1009.68 1009.49 1009.39 1009.37 1009.43 1009.56 1009.76
1014.18 1013.92 1013.80 1013.79 1013.88 1014.04 1014.26 1014.51 1014.78 1015.07 1015.36 1015.65 1015.92 1016.18 1016.39 1016.56 1016.65 1016.67 1016.59 1016.41 1016.14 1015.79 1015.38 1014.92 1014.44 1013.96 1013.50 1013.05 1012.63 1012.23 1011.84 1011.46 1011.07 1010.68 1010.28 1009.89 1009.52 1009.20 1008.94 1008.76 1008.68 1008.69 1008.80 1008.99
1013.30 1013.11 1013.04 1013.09 1013.24 1013.46 1013.72 1014.01 1014.31 1014.61 1014.91 1015.21 1015.49 1015.74 1015.97 1016.14 1016.26 1016.29 1016.25 1016.11 1015.87 1015.56 1015.19 1014.76 1014.31 1013.86 1013.41 1012.97 1012.56 1012.15 1011.75 1011.35 1010.93 1010.49 1010.04 1009.59 1009.15 1008.75 1008.40 1008.14 1007.98 1007.94 1008.00 1008.17
1012.43 1012.30 1012.31 1012.42 1012.63 1012.90 1013.20 1013.51 1013.83 1014.14 1014.45 1014.74 1015.01 1015.26 1015.48 1015.66 1015.78 1015.84 1015.81 1015.70 1015.50 1015.22 1014.88 1014.49 1014.08 1013.65 1013.23 1012.82 1012.42 1012.02 1011.63 1011.22 1010.78 1010.32 1009.83 1009.32 1008.82 1008.34 1007.91 1007.57 1007.33 1007.21 1007.21 1007.34
1011.59 1011.54 1011.61 1011.79 1012.05 1012.36 1012.69 1013.02 1013.35 1013.66 1013.95 1014.22 1014.48 1014.72 1014.93 1015.10 1015.22 1015.28 1015.27 1015.18 1015.01 1014.76 1014.46 1014.10 1013.73 1013.34 1012.95 1012.57 1012.20 1011.83 1011.46 1011.06 1010.63 1010.16 1009.64 1009.10 1008.54 1008.00 1007.50 1007.08 1006.75 1006.55 1006.48 1006.55
1010.87 1010.88 1011.02 1011.25 1011.55 1011.88 1012.22 1012.56 1012.87 1013.16 1013.43 1013.68 1013.91 1014.12 1014.31 1014.47 1014.58 1014.64 1014.64 1014.56 1014.41 1014.19 1013.92 1013.61 1013.27 1012.92 1012.58 1012.24 1011.91 1011.58 1011.24 1010.87 1010.45 1009.99 1009.47 1008.91 1008.32 1007.73 1007.17 1006.67 1006.27 1005.98 1005.84 1005.84
1010.33 1010.40 1010.58 1010.85 1011.16 1011.50 1011.83 1012.14 1012.43 1012.68 1012.91 1013.12 1013.31 1013.49 1013.65 1013.78 1013.88 1013.93 1013.93 1013.86 1013.73 1013.53 1013.29 1013.02 1012.72 1012.42 1012.12 1011.83 1011.55 1011.27 1010.97 1010.63 1010.25 1009.81 1009.31 1008.75 1008.14 1007.52 1006.91 1006.35 1005.88 1005.51 1005.29 1005.20
1010.04 1010.15 1010.36 1010.63 1010.93 1011.24 1011.54 1011.80 1012.04 1012.24 1012.42 1012.57 1012.72 1012.85 1012.97 1013.07 1013.14 1013.18 1013.17 1013.10 1012.98 1012.81 1012.60 1012.36 1012.11 1011.85 1011.60 1011.36 1011.12 1010.89 1010.63 1010.34 1010.00 1009.60 1009.12 1008.57 1007.97 1007.34 1006.70 1006.09 1005.56 1005.12 1004.81 1004.64
1010.01 1010.14 1010.34 1010.59 1010.86 1011.11 1011.35 1011.55 1011.71 1011.84 1011.95 1012.04 1012.13 1012.21 1012.28 1012.34 1012.39 1012.40 1012.38 1012.32 1012.21 1012.06 1011.87 1011.66 1011.44 1011.23 1011.02 1010.82 1010.63 1010.44 1010.23 1009.99 1009.69 1009.33 1008.88 1008.36 1007.78 1007.14 1006.49 1005.85 1005.27 1004.77 1004.38 1004.14
1010.19 1010.31 1010.49 1010.69 1010.89 1011.07 1011.22 1011.33 1011.41 1011.47 1011.50 1011.52 1011.54 1011.57 1011.59 1011.62 1011.63 1011.63 1011.59 1011.53 1011.42 1011.28 1011.12 1010.93 1010.74 1010.55 1010.38 1010.22 1010.07 1009.92 1009.75 1009.55 1009.30 1008.98 1008.58 1008.09 1007.53 1006.91 1006.26 1005.61 1004.99 1004.43 1003.98 1003.66
1010.48 1010.58 1010.70 1010.83 1010.95 1011.04 1011.09 1011.11 1011.10 1011.07 1011.02 1010.98 1010.94 1010.91 1010.89 1010.88 1010.87 1010.84 1010.79 1010.72 1010.62 1010.48 1010.33 1010.16 1010.00 1009.84 1009.69 1009.56 1009.44 1009.32 1009.19 1009.03 1008.82 1008.55 1008.19 1007.75 1007.22 1006.63 1005.99 1005.34 1004.70 1004.11 1003.60 1003.21
1010.76 1010.80 1010.86 1010.91 1010.93 1010.92 1010.88 1010.80 1010.71 1010.59 1010.48 1010.37 1010.28 1010.21 1010.16 1010.11 1010.07 1010.03 1009.97 1009.89 1009.78 1009.65 1009.51 1009.35 1009.20 1009.06 1008.93 1008.83 1008.74 1008.65 1008.56 1008.44 1008.27 1008.04 1007.73 1007.34 1006.86 1006.31 1005.70 1005.05 1004.41 1003.79 1003.25 1002.79
1010.89 1010.88 1010.86 1010.82 1010.76 1010.65 1010.52 1010.36 1010.19 1010.01 1009.84 1009.68 1009.55 1009.44 1009.36 1009.29 1009.23 1009.17 1009.10 1009.01 1008.90 1008.77 1008.63 1008.49 1008.35 1008.22 1008.11 1008.03 1007.97 1007.91 1007.85 1007.78 1007.66 1007.48 1007.23 1006.89 1006.47 1005.96 1005.39 1004.77 1004.13 1003.51 1002.93 1002.43
1010.80 1010.74 1010.65 1010.53 1010.38 1010.19 1009.98 1009.75 1009.52 1009.29 1009.08 1008.89 1008.73 1008.60 1008.50 1008.41 1008.33 1008.26 1008.17 1008.07 1007.96 1007.83 1007.69 1007.55 1007.42 1007.31 1007.23 1007.17 1007.14 1007.12 1007.10 1007.07 1007.01 1006.90 1006.71 1006.44 1006.08 1005.63 1005.10 1004.52 1003.90 1003.27 1002.68 1002.14
1010.47 1010.35 1010.20 1010.01 1009.79 1009.54 1009.28 1009.00 1008.72 1008.46 1008.22 1008.01 1007.84 1007.69 1007.58 1007.48 1007.39 1007.30 1007.20 1007.09 1006.96 1006.83 1006.69 1006.56 1006.44 1006.35 1006.29 1006.26 1006.26 1006.29 1006.32 1006.35 1006.35 1006.31 1006.19 1005.99 1005.70 1005.32 1004.85 1004.31 1003.71 1003.10 1002.49 1001.93
1009.91 1009.75 1009.56 1009.32 1009.06 1008.77 1008.46 1008.15 1007.86 1007.58 1007.33 1007.11 1006.92 1006.77 1006.63 1006.52 1006.41 1006.31 1006.19 1006.07 1005.93 1005.79 1005.66 1005.53 1005.42 1005.35 1005.31 1005.32 1005.36 1005.44 1005.53 1005.62 1005.69 1005.72 1005.68 1005.56 1005.35 1005.03 1004.62 1004.13 1003.57 1002.96 1002.35 1001.77
Thickness
5702 5709 5710 5705 5704 5703 5694 5684 5672 5673 5673 5676 5679 5679 5679 5677 5675 5673 5671 5670 5668 5667 5666 5666 5665 5664 5664 5662 5661 5660 5657 5654 5651 5650 5648 5646 5643 5642 5640 5638 5636 5633 5630 5627
5697 5706 5706 5700 5701 5700 5696 5691 5683 5677 5673 5681 5682 5680 5677 5674 5673 5669 5669 5668 5667 5666 5665 5663 5663 5662 5662 5660 5659 5658 5655 5652 5650 5648 5645 5643 5641 5639 5637 5635 5632 5630 5627 5624
5679 5694 5694 5682 5693 5694 5689 5688 5681 5670 5672 5678 5675 5675 5673 5672 5671 5668 5666 5665 5665 5664 5663 5662 5662 5661 5659 5658 5657 5655 5652 5650 5648 5646 5643 5641 5639 5637 5634 5631 5629 5626 5623 5620
5673 5677 5666 5681 5702 5700 5689 5684 5684 5679 5678 5678 5676 5675 5674 5673 5669 5667 5666 5664 5664 5662 5661 5661 5660 5659 5657 5656 5654 5652 5649 5647 5646 5643 5641 5638 5636 5633 5631 5629 5626 5623 5620 5617
5664 5661 5666 5683 5694 5692 5682 5674 5681 5678 5676 5676 5675 5670 5668 5672 5671 5668 5666 5665 5664 5662 5660 5659 5658 5657 5655 5653 5651 5649 5646 5645 5643 5641 5638 5635 5634 5631 5629 5626 5623 5620 5618 5615
5664 5658 5654 5672 5693 5699 5684 5665 5679 5678 5674 5672 5669 5655 5657 5668 5668 5667 5666 5664 5663 5661 5659 5657 5656 5654 5651 5649 5648 5646 5644 5643 5642 5640 5637 5634 5632 5630 5628 5625 5621 5619 5616 5613
5659 5655 5662 5682 5694 5692 5663 5661 5677 5677 5674 5670 5664 5660 5663 5665 5664 5664 5663 5662 5661 5658 5655 5655 5654 5652 5648 5646 5645 5645 5644 5642 5640 5638 5636 5634 5631 5629 5626 5622 5619 5616 5613 5611
5654 5648 5654 5685 5684 5673 5668 5675 5677 5675 5673 5670 5666 5665 5663 5662 5661 5660 5659 5658 5657 5654 5653 5652 5651 5649 5646 5644 5645 5644 5642 5640 5638 5636 5635 5633 5629 5626 5624 5620 5616 5613 5610 5607
5661 5660 5673 5680 5679 5680 5678 5673 5673 5671 5671 5668 5664 5661 5660 5659 5657 5656 5655 5654 5653 5651 5650 5650 5649 5647 5644 5644 5644 5642 5639 5637 5635 5634 5632 5630 5627 5624 5621 5617 5613 5610 5607 5604
5662 5667 5672 5675 5677 5677 5676 5673 5673 5672 5669 5666 5661 5658 5656 5654 5653 5652 5652 5651 5650 5648 5647 5646 5646 5646 5644 5644 5643 5640 5637 5635 5634 5631 5630 5628 5625 5623 5619 5616 5612 5609 5606 5603
5657 5664 5667 5669 5671 5672 5672 5671 5670 5669 5667 5663 5659 5656 5653 5650 5649 5649 5648 5648 5647 5645 5644 5644 5644 5643 5643 5643 5641 5638 5635 5634 5632 5630 5627 5625 5623 5621 5619 5616 5613 5610 5607 5603
5652 5661 5658 5660 5668 5670 5666 5664 5663 5661 5660 5659 5656 5653 5650 5647 5646 5645 5645 5644 5643 5642 5642 5642 5642 5641 5641 5640 5639 5636 5633 5631 5629 5628 5626 5623 5620 5619 5619 5617 5615 5612 5609 5605
5663 5666 5663 5664 5665 5665 5662 5660 5660 5657 5655 5653 5652 5650 5646 5643 5643 5642 5642 5641 5640 5639 5639 5639 5639 5638 5638 5638 5636 5634 5631 5630 5628 5626 5625 5622 5619 5616 5614 5615 5613 5611 5608 5605
5665 5662 5656 5657 5656 5658 5657 5656 5655 5653 5652 5650 5646 5645 5642 5640 5638 5638 5637 5638 5637 5636 5636 5636 5635 5635 5636 5635 5634 5632 5630 5629 5627 5625 5624 5622 5619 5617 5615 5612 5610 5608 5608 5605
5658 5656 5652 5651 5650 5650 5650 5648 5645 5644 5643 5642 5640 5638 5637 5635 5633 5634 5635 5635 5634 5632 5632 5632 5632 5632 5633 5633 5631 5630 5628 5626 5626 5625 5623 5622 5620 5618 5616 5613 5610 5608 5605 5603
5647 5647 5645 5643 5641 5640 5639 5638 5636 5636 5636 5635 5634 5633 5633 5632 5631 5631 5631 5631 5628 5627 5627 5627 5627 5629 5631 5630 5628 5627 5625 5626 5625 5623 5622 5621 5619 5618 5615 5612 5610 5607 5604 5601
5634 5632 5631 5630 5631 5631 5631 5631 5630 5631 5631 5630 5629 5630 5629 5628 5626 5625 5625 5626 5625 5624 5625 5624 5625 5627 5627 5627 5625 5624 5623 5622 5623 5621 5620 5619 5618 5616 5615 5612 5609 5607 5604 5603
5628 5627 5626 5626 5624 5624 5624 5625 5625 5625 5625 5626 5626 5625 5623 5622 5620 5620 5621 5621 5620 5621 5622 5622 5623 5623 5623 5623 5622 5621 5620 5619 5619 5618 5617 5617 5616 5616 5614 5611 5609 5606 5603 5602
5620 5619 5620 5620 5619 5618 5618 5618 5618 5619 5620 5621 5620 5619 5618 5618 5617 5617 5616 5615 5615 5615 5616 5618 5619 5619 5618 5619 5618 5617 5616 5616 5616 5615 5615 5615 5614 5613 5611 5609 5607 5604 5602 5599
5610 5612 5613 5614 5614 5612 5611 5612 5612 5613 5614 5615 5614 5613 5612 5612 5613 5612 5611 5610 5611 5612 5613 5614 5614 5614 5614 5615 5615 5614 5614 5613 5613 5613 5613 5612 5611 5610 5608 5607 5605 5602 5600 5597
5600 5603 5604 5604 5605 5606 5605 5605 5605 5605 5607 5608 5608 5607 5608 5608 5608 5607 5605 5605 5608 5609 5609 5610 5609 5609 5610 5610 5611 5611 5611 5611 5611 5610 5610 5609 5608 5607 5606 5604 5602 5600 5598 5595
5590 5593 5594 5595 5596 5596 5597 5598 5598 5599 5600 5601 5602 5602 5602 5601 5601 5601 5601 5601 5604 5605 5605 5606 5606 5606 5606 5607 5607 5608 5609 5609 5608 5608 5608 5607 5606 5604 5603 5601 5599 5598 5595 5592
5580 5583 5584 5586 5587 5587 5589 5591 5592 5593 5593 5593 5594 5595 5595 5595 5595 5594 5594 5597 5599 5600 5601 5601 5602 5602 5603 5604 5605 5605 5606 5606 5605 5606 5606 5605 5604 5602 5600 5599 5597 5595 5592 5589
5571 5573 5575 5577 5578 5578 5579 5582 5583 5585 5586 5587 5588 5589 5589 5588 5589 5591 5592 5593 5594 5595 5596 5597 5598 5599 5599 5600 5602 5602 5602 5603 5603 5603 5603 5602 5601 5600 5598 5596 5594 5592 5589 5586
5562 5564 5567 5567 5568 5569 5571 5573 5575 5576 5577 5579 5581 5582 5583 5584 5584 5586 5587 5588 5589 5589 5591 5592 5593 5594 5595 5596 5597 5598 5599 5600 5600 5600 5600 5598 5597 5596 5595 5593 5590 5589 5586 5583
5553 5555 5558 5559 5561 5563 5564 5565 5566 5567 5568 5570 5572 5574 5576 5578 5580 5581 5581 5582 5584 5584 5585 5587 5588 5590 5591 5591 5593 5594 5595 5596 5597 5596 5596 5595 5594 5593 5591 5589 5587 5585 5582 5579
5546 5548 5549 5551 5553 5555 5557 5558 5559 5560 5561 5562 5564 5567 5570 5572 5573 5574 5575 5576 5577 5578 5580 5582 5583 5585 5586 5587 5588 5589 5591 5592 5592 5592 5592 5591 5590 5588 5587 5585 5582 5580 5577 5574